Home   Weather   Corpus Christi   Past weeks
Flag for USA

Past Weather in Corpus Christi, Texas, USA — Yesterday and Last 2 Weeks

Now
79 °F

Passing clouds.


Feels Like: 83 °F
Forecast: 92 / 80 °F
Wind: 6 mph from Southeast

Location: Corpus Christi International Airport

Current Time: Jul 19, 2019 at 3:38:06 am

Latest Report: Jul 19, 2019 at 2:51 am


Visibility: 10 mi

Pressure: 29.95 "Hg

Humidity: 94%

Dew Point: 77 °F

Location of Corpus ChristiLocation

Past Weather in Corpus Christi — Graph

°F

Corpus Christi Temperature Yesterday

Maximum temperature yesterday: 94 °F (at 1:51 pm)
Minimum temperature yesterday: 79 °F (at 6:51 am)
Average temperature yesterday: 86 °F

High & Low Weather Summary for the Past Weeks

 TemperatureHumidityPressure
High100 °F (Jul 11, 4:51 pm)97% (Jul 8, 6:51 am)30.07 "Hg (Jul 8, 6:51 am)
Low76 °F (Jul 6, 4:51 am)32% (Jul 13, 4:51 pm)29.72 "Hg (Jul 12, 6:51 pm)
Average86 °F74%29.92 "Hg
* Reported Jul 4 1:51 am — Jul 19 1:51 am, Corpus Christi. Weather by CustomWeather, © 2019

Note: Actual official high and low records may vary slightly from our data, if they occured in-between our weather recording intervals... More about our weather records

Advertising

Corpus Christi Weather History for the Previous 24 Hours

Scroll right to see more
 ConditionsComfort  
Time TempWeatherWind HumidityBarometerVisibility
1:51 am
Fri, Jul 19
80 °FPassing clouds.8 mph90%29.96 "Hg10 mi
12:51 am81 °FPassing clouds.9 mph85%29.95 "Hg10 mi
11:51 pm
Thu, Jul 18
81 °FPassing clouds.10 mph85%29.96 "Hg10 mi
10:51 pm82 °FPassing clouds.12 mph82%29.95 "Hg10 mi
9:51 pm83 °FClear.14 mph79%29.94 "Hg10 mi
8:51 pm84 °FPassing clouds.16 mph77%29.93 "Hg10 mi
7:51 pm86 °FPassing clouds.22 mph67%29.92 "Hg10 mi
6:51 pm89 °FPassing clouds.21 mph59%29.90 "Hg10 mi
5:51 pm90 °FPassing clouds.23 mph59%29.91 "Hg10 mi
4:51 pm92 °FPassing clouds.20 mph56%29.93 "Hg10 mi
3:51 pm93 °FScattered clouds.18 mph54%29.94 "Hg10 mi
2:51 pm93 °FScattered clouds.20 mph56%29.96 "Hg10 mi
1:51 pm94 °FScattered clouds.20 mph54%29.98 "Hg10 mi
12:51 pm92 °FScattered clouds.16 mph58%29.99 "Hg10 mi
11:51 am90 °FBroken clouds.18 mph61%30.00 "Hg10 mi
10:51 am88 °FBroken clouds.17 mph67%30.01 "Hg10 mi
9:51 am88 °FBroken clouds.15 mph70%30.00 "Hg10 mi
9:26 am85 °FBroken clouds.16 mph77%30.01 "Hg10 mi
8:51 am85 °FBroken clouds.14 mph80%30.00 "Hg10 mi
7:51 am81 °FPassing clouds.8 mph94%30.00 "Hg10 mi
6:51 am79 °FPassing clouds.6 mph94%29.99 "Hg10 mi
5:51 am80 °FPassing clouds.7 mph90%29.98 "Hg10 mi
4:51 am80 °FPassing clouds.9 mph90%29.98 "Hg10 mi
3:51 am80 °FPassing clouds.7 mph90%29.98 "Hg10 mi
Weather by CustomWeather, © 2019

See weather overview